Location: Amsterdam
(30.7274°N, 84.4357°W)
Time: 08:00:36
(UTC+00:00)

Transit 2A Rocket - Pass Details

Date: 17 February 2026
Orbit: 583 x 900 km, 66.7° (Epoch: 8 March)

Event Time Altitude Azimuth Distance (km) Brightness Sun altitude
Rises 20:58:39 0° 200° (SSW) 3,410 9.2 28.2°
Reaches altitude 10° 21:01:05 10° 199° (SSW) 2,507 8.6 27.8°
Maximum altitude 21:06:57 79° 113° (ESE) 913 5.8 26.8°
Drops below altitude 10° 21:12:59 10° 28° (NNE) 2,575 7.3 25.7°
Sets 21:15:30 0° 27° (NNE) 3,508 7.9 25.2°
